Location: Arcusa
(42.3167°N, 0.0833°W)
Time: 17:17:54
(UTC+00:00)

Cosmos 1606 Rocket - Pass Details

Date: 25 January 2020
Orbit: 602 x 633 km, 82.5° (Epoch: 27 February)

Event Time Altitude Azimuth Distance (km) Brightness Sun altitude
Rises 04:59:46 0° 183° (S) 2,904 7.0 -26.0°
Reaches altitude 10° 05:02:00 10° 183° (S) 1,998 6.2 -25.6°
Maximum altitude 05:06:26 80° 97° (E) 640 3.6 -24.8°
Drops below altitude 10° 05:10:51 10° 10° (N) 1,996 6.2 -23.9°
Sets 05:13:05 0° 10° (N) 2,901 7.1 -23.5°
